User: anonymous   Login
Location: Muenchen
(48.1800°N, 11.5800°E)
Time: 17:17:04
(UTC+02:00)
Language:

Iridium 37 - Orbit

View from above orbital plane
View from above orbital plane
View from above satellite
View from above satellite

Ground track
Ground track

The orbit data is extracted from the following two-line orbital elements,

1 24968U 97056D   14298.16466383  .00000656  00000-0  22726-3 0   122
2 24968 086.3990 002.6576 0002329 110.2516 249.8930 14.34221968894077
Epoch (UTC): 25 October 2014 03:57:06
Eccentricity: 0.0002329
inclination: 86.3990°
perigee height: 776 km
apogee height: 779 km
right ascension of ascending node: 2.6576°
argument of perigee: 110.2516°
revolutions per day: 14.34221968
mean anomaly at epoch: 249.8930°
orbit number at epoch: 89407

The dashed part of the orbit path shows where the satellite is in the earth's shadow,  

DLR